Location: Gwatt
(46.7204°N, 7.6223°E)
Time: 00:39:00
(UTC+00:00)

Envisat - Pass Details

Date: 29 November 2020
Orbit: 764 x 766 km, 98.1° (Epoch: 19 January)

Event Time Altitude Azimuth Distance (km) Brightness Sun altitude
Rises 04:52:12 0° 20° (NNE) 3,245 6.4 -19.8°
Reaches altitude 10° 04:54:40 10° 28° (NNE) 2,314 5.7 -19.4°
Maximum altitude 04:59:27 40° 97° (E) 1,128 4.4 -18.6°
Drops below altitude 10° 05:04:11 10° 166° (SSE) 2,296 5.8 -17.8°
Sets 05:06:37 0° 174° (S) 3,217 6.5 -17.4°
